Plymouth, NH

4:36 PM EDT on September 23, 2019 (GMT -0400)
Plymouth

Weather History for K1P1 - August, 2019

Change the Weather History Date:

Sunday, August 25, 2019

  Actual Average (WUND) Record (WUND)
Temperature  
Mean Temperature 60 °F -  
Max Temperature 73 °F - - (-1)
Min Temperature 48 °F - - (-1)
Degree Days  
Heating Degree Days 4    
Growing Degree Days 10 (Base 50)    
Moisture  
Dew Point 48 °F    
Average Humidity 74    
Maximum Humidity 97    
Minimum Humidity 25    
Precipitation  
Precipitation 0.00 in - - ()
Sea Level Pressure  
Sea Level Pressure 30.34 in    
Wind  
Wind Speed 1 mph ()    
Max Wind Speed 12 mph    
Max Gust Speed -    
Visibility 6.9 miles    
Events Fog    
Averages and records for this station are not official NWS values.
T = Trace of Precipitation, MM = Missing Value Source: Averaged Metar Reports

Daily Weather History Graph

Daily Weather History Graph

Search for Another Location

Airport or City:

Astronomy

Aug. 25, 2019 Rise Set
Actual Time 6:02 AM EDT 7:35 PM EDT
Civil Twilight 5:32 AM EDT 8:05 PM EDT
Nautical Twilight 4:55 AM EDT 8:41 PM EDT
Astronomical Twilight 4:16 AM EDT 9:20 PM EDT
Moon 12:29 AM EDT (8/25) 3:59 PM EDT (8/25)
Length of Visible Light 14h 33m
Length of Day
13h 32m
Waning Crescent, 29% of the Moon is Illuminated
Aug 25
Waning Crescent
Aug 30
New
Sep 5
First Quarter
Sep 14
Full
Sep 21
Last Quarter

Hourly Weather History & Observations

Time (EDT) Temp. Dew Point Humidity Pressure Visibility Wind Dir Wind Speed Gust Speed Precip Events Conditions
12:15 AM 59.9 °F 56.8 °F 90% 30.34 in 10.0 mi Calm Calm - N/A   Overcast
12:35 AM 57.7 °F 55.2 °F 91% 30.34 in 7.0 mi Calm Calm - N/A   Scattered Clouds
12:55 AM 56.7 °F 54.9 °F 94% 30.34 in 10.0 mi Calm Calm - N/A   Clear
1:15 AM 55.6 °F 53.8 °F 94% 30.34 in 1.8 mi Calm Calm - N/A   Mist
1:35 AM 55.0 °F 53.6 °F 95% 30.33 in 0.8 mi Calm Calm - N/A   Mist
2:15 AM 53.6 °F 52.5 °F 96% 30.33 in 3.0 mi Calm Calm - N/A   Clear
2:35 AM 52.7 °F 51.6 °F 96% 30.33 in 4.0 mi Calm Calm - N/A   Clear
2:55 AM 52.2 °F 51.1 °F 96% 30.32 in 0.5 mi Calm Calm - N/A Fog Fog
3:15 AM 52.0 °F 50.9 °F 96% 30.33 in 1.5 mi Calm Calm - N/A   Scattered Clouds
3:35 AM 51.1 °F 50.2 °F 97% 30.33 in 0.5 mi Calm Calm - N/A Fog Fog
3:55 AM 50.4 °F 49.5 °F 97% 30.34 in 3.0 mi Calm Calm - N/A   Scattered Clouds
4:15 AM 50.2 °F 49.3 °F 97% 30.34 in 0.5 mi Calm Calm - N/A Fog Fog
4:35 AM 50.2 °F 49.3 °F 97% 30.34 in 0.2 mi Calm Calm - N/A Fog Fog
4:55 AM 49.8 °F 48.9 °F 97% 30.35 in 0.2 mi Calm Calm - N/A Fog Fog
5:15 AM 49.5 °F 48.6 °F 97% 30.35 in 0.8 mi Calm Calm - N/A   Overcast
5:35 AM 50.0 °F 49.1 °F 97% 30.36 in 0.5 mi Calm Calm - N/A Fog Fog
5:55 AM 49.5 °F 48.6 °F 97% 30.36 in 0.2 mi Calm Calm - N/A Fog Fog
6:15 AM 50.0 °F 49.1 °F 97% 30.36 in 0.2 mi Calm Calm - N/A Fog Fog
6:35 AM 50.0 °F 49.1 °F 97% 30.37 in 0.2 mi Calm Calm - N/A Fog Fog
6:55 AM 50.2 °F 49.3 °F 97% 30.37 in 0.2 mi Calm Calm - N/A Fog Fog
7:15 AM 50.5 °F 49.6 °F 97% 30.38 in 0.2 mi Calm Calm - N/A Fog Fog
7:35 AM 50.9 °F 50.0 °F 97% 30.39 in 0.2 mi Calm Calm - N/A Fog Fog
7:55 AM 51.4 °F 50.5 °F 97% 30.39 in 0.2 mi Calm Calm - N/A Fog Fog
8:15 AM 52.2 °F 51.3 °F 97% 30.39 in 0.5 mi Calm Calm - N/A Fog Fog
8:35 AM 53.8 °F 52.9 °F 97% 30.39 in 1.0 mi Calm Calm - N/A   Overcast
8:55 AM 54.5 °F 53.6 °F 97% 30.39 in 10.0 mi Calm Calm - N/A   Mostly Cloudy
9:35 AM 58.1 °F 57.2 °F 97% 30.38 in 10.0 mi Calm Calm - N/A   Clear
9:55 AM 59.0 °F 57.7 °F 96% 30.38 in 10.0 mi Calm Calm - N/A   Clear
10:15 AM 63.7 °F 59.2 °F 85% 30.38 in 10.0 mi Calm Calm - N/A   Clear
10:35 AM 67.1 °F 55.2 °F 66% 30.38 in 10.0 mi ESE 3.5 mph - N/A   Clear
10:55 AM 68.4 °F 54.1 °F 60% 30.37 in 10.0 mi Calm Calm - N/A   Scattered Clouds
11:15 AM 70.0 °F 52.3 °F 53% 30.37 in 10.0 mi East 6.9 mph - N/A   Scattered Clouds
11:35 AM 70.3 °F 47.1 °F 43% 30.37 in 10.0 mi ESE 6.9 mph - N/A   Scattered Clouds
11:55 AM 70.7 °F 45.3 °F 40% 30.36 in 10.0 mi ESE 5.8 mph - N/A   Clear
12:15 PM 71.2 °F 43.7 °F 37% 30.36 in 10.0 mi East 5.8 mph - N/A   Clear
12:35 PM 71.6 °F 41.9 °F 34% 30.35 in 10.0 mi East 8.1 mph - N/A   Clear
1:15 PM 72.5 °F 39.2 °F 30% 30.34 in 10.0 mi East 11.5 mph - N/A   Clear
1:55 PM 72.5 °F 34.7 °F 25% 30.34 in 10.0 mi ESE 8.1 mph - N/A   Clear
2:15 PM 73.4 °F 35.8 °F 25% 30.33 in 10.0 mi East 8.1 mph - N/A   Clear
2:35 PM 72.7 °F 38.1 °F 28% 30.33 in 10.0 mi ESE 6.9 mph - N/A   Clear
2:55 PM 72.5 °F 38.8 °F 29% 30.32 in 10.0 mi ESE 10.4 mph - N/A   Clear
3:15 PM 73.0 °F 40.5 °F 31% 30.32 in 10.0 mi ESE 5.8 mph - N/A   Clear
3:55 PM 72.9 °F 41.0 °F 32% 30.30 in 10.0 mi ESE 3.5 mph - N/A   Clear
4:15 PM 72.7 °F 39.7 °F 30% 30.30 in 10.0 mi ESE 4.6 mph - N/A   Clear
4:35 PM 72.7 °F 40.1 °F 31% 30.30 in 10.0 mi ESE 5.8 mph - N/A   Clear
4:55 PM 72.7 °F 41.0 °F 32% 30.30 in 10.0 mi East 5.8 mph - N/A   Clear
5:15 PM 72.5 °F 41.4 °F 32% 30.29 in 10.0 mi East 8.1 mph - N/A   Clear
5:35 PM 71.6 °F 41.2 °F 33% 30.29 in 10.0 mi ESE 5.8 mph - N/A   Clear
5:55 PM 71.2 °F 42.4 °F 35% 30.29 in 10.0 mi East 5.8 mph - N/A   Clear
6:15 PM 70.7 °F 43.2 °F 37% 30.29 in 10.0 mi ESE 4.6 mph - N/A   Clear
6:35 PM 69.6 °F 48.0 °F 46% 30.29 in 10.0 mi ENE 3.5 mph - N/A   Clear
6:55 PM 67.8 °F 46.8 °F 47% 30.29 in 10.0 mi East 3.5 mph - N/A   Clear
7:15 PM 64.0 °F 49.1 °F 58% 30.29 in 10.0 mi Calm Calm - N/A   Clear
7:35 PM 60.1 °F 52.2 °F 75% 30.30 in 10.0 mi Calm Calm - N/A   Clear
7:55 PM 57.2 °F 51.8 °F 82% 30.31 in 10.0 mi Calm Calm - N/A   Clear
8:15 PM 55.8 °F 50.9 °F 84% 30.31 in 10.0 mi Calm Calm - N/A   Clear
8:35 PM 54.7 °F 51.1 °F 88% 30.32 in 10.0 mi Calm Calm - N/A   Clear
8:55 PM 53.6 °F 50.4 °F 89% 30.33 in 10.0 mi Calm Calm - N/A   Clear
9:15 PM 52.0 °F 49.3 °F 90% 30.33 in 10.0 mi Calm Calm - N/A   Clear
9:35 PM 51.8 °F 49.8 °F 93% 30.33 in 10.0 mi Calm Calm - N/A   Clear
9:55 PM 50.9 °F 49.1 °F 94% 30.34 in 10.0 mi Calm Calm - N/A   Clear
10:15 PM 50.5 °F 49.1 °F 95% 30.34 in 10.0 mi Calm Calm - N/A   Clear
10:35 PM 50.0 °F 48.4 °F 94% 30.34 in 10.0 mi Calm Calm - N/A   Clear
10:55 PM 50.0 °F 48.4 °F 94% 30.34 in 10.0 mi Calm Calm - N/A   Clear
11:15 PM 49.5 °F 48.0 °F 95% 30.34 in 10.0 mi Calm Calm - N/A   Clear
11:35 PM 48.9 °F 47.5 °F 95% 30.33 in 10.0 mi Calm Calm - N/A   Clear
11:55 PM 48.2 °F 47.1 °F 96% 30.33 in 7.0 mi Calm Calm - N/A   Clear